When you browse on this site, cookies collect data to enhance your experience and personalize the content and advertising you see.
Visit our Privacy Policy to learn more. By continuing to use the site, you agree to this use of cookies and data.
  • Em Portugal
  • Lista de países
  • Para 7 dias
  • Temperatura da água
  • Mapa do tempo
  • Widgets de tempo
  • user-avatar
    Iniciar Sessão

    Previsão horária em Salnikovschina

    Hoje, 29 Fevereiro, Sábado

    Tempo Temperatura Precipitação Vento Pressão Humidade
    00:00 -6°C° 0 mm 3 m/s 730 mmHg 92%
    01:00 -7°C° 0 mm 3 m/s 731 mmHg 92%
    02:00 -7°C° 0 mm 3 m/s 731 mmHg 91%
    03:00 -8°C° 0.1 mm 4 m/s 731 mmHg 91%
    04:00 -8°C° 0.1 mm 4 m/s 732 mmHg 91%
    05:00 -8°C° 0.1 mm 4 m/s 732 mmHg 90%
    06:00 -8°C° 0 mm 4 m/s 732 mmHg 90%
    07:00 -8°C° 0 mm 4 m/s 732 mmHg 89%
    08:00 -8°C° 0 mm 4 m/s 732 mmHg 88%
    09:00 -7°C° 0 mm 4 m/s 732 mmHg 83%
    10:00 -7°C° 0 mm 4 m/s 732 mmHg 78%
    11:00 -5°C° 0 mm 4 m/s 733 mmHg 73%
    12:00 -5°C° 0 mm 4 m/s 733 mmHg 71%
    13:00 -4°C° 0 mm 4 m/s 733 mmHg 70%
    14:00 -4°C° 0 mm 4 m/s 733 mmHg 68%
    15:00 -5°C° 0 mm 3 m/s 734 mmHg 72%
    16:00 -5°C° 0 mm 3 m/s 734 mmHg 76%
    17:00 -5°C° 0 mm 2 m/s 734 mmHg 81%
    18:00 -5°C° 0 mm 2 m/s 735 mmHg 83%
    19:00 -6°C° 0 mm 2 m/s 735 mmHg 85%
    20:00 -6°C° 0 mm 2 m/s 735 mmHg 88%
    21:00 -6°C° 0 mm 2 m/s 735 mmHg 88%
    22:00 -6°C° 0 mm 2 m/s 735 mmHg 89%
    23:00 -5°C° 0 mm 2 m/s 735 mmHg 89%

    Amanhã, 1 Março, Domingo

    Tempo Temperatura Precipitação Vento Pressão Humidade
    00:00 -6°C° 0 mm 3 m/s 735 mmHg 89%
    01:00 -5°C° 0 mm 3 m/s 735 mmHg 90%
    02:00 -5°C° 0 mm 3 m/s 735 mmHg 90%
    03:00 -5°C° 0 mm 3 m/s 735 mmHg 90%
    04:00 -4°C° 0 mm 3 m/s 735 mmHg 90%
    05:00 -4°C° 0 mm 3 m/s 735 mmHg 90%
    06:00 -4°C° 0 mm 4 m/s 734 mmHg 89%
    07:00 -3°C° 0 mm 4 m/s 734 mmHg 87%
    08:00 -4°C° 0 mm 5 m/s 734 mmHg 86%
    09:00 -2°C° 0 mm 5 m/s 734 mmHg 86%
    10:00 -2°C° 0 mm 5 m/s 733 mmHg 86%
    11:00 -2°C° 0 mm 6 m/s 733 mmHg 86%
    12:00 -2°C° 0 mm 6 m/s 733 mmHg 89%
    13:00 -2°C° 0 mm 6 m/s 733 mmHg 92%
    14:00 -2°C° 0 mm 6 m/s 732 mmHg 95%
    15:00 -1°C° 0.2 mm 5 m/s 732 mmHg 95%
    16:00 -1°C° 0.2 mm 5 m/s 732 mmHg 96%
    17:00 -1°C° 0.2 mm 5 m/s 732 mmHg 96%
    18:00 -1°C° 0.1 mm 5 m/s 733 mmHg 96%
    19:00 0°C° 0.1 mm 5 m/s 733 mmHg 96%
    20:00 0°C° 0.1 mm 4 m/s 733 mmHg 95%
    21:00 0°C° 0.2 mm 4 m/s 733 mmHg 96%
    22:00 +1°C° 0.2 mm 3 m/s 733 mmHg 97%
    23:00 +1°C° 0.2 mm 3 m/s 733 mmHg 97%

    Depois de amanhã, 2 Março, Segunda-feira

    Tempo Temperatura Precipitação Vento Pressão Humidade
    00:00 +1°C° 0.3 mm 3 m/s 733 mmHg 97%
    01:00 +1°C° 0.3 mm 3 m/s 733 mmHg 97%
    02:00 +1°C° 0.3 mm 3 m/s 733 mmHg 97%
    03:00 +1°C° 0.1 mm 3 m/s 733 mmHg 97%
    04:00 +1°C° 0.1 mm 3 m/s 733 mmHg 97%
    05:00 +1°C° 0.1 mm 3 m/s 733 mmHg 97%
    06:00 +1°C° 0.2 mm 3 m/s 733 mmHg 97%
    07:00 +1°C° 0.2 mm 3 m/s 733 mmHg 97%
    08:00 +1°C° 0.2 mm 3 m/s 733 mmHg 97%
    09:00 +1°C° 0.2 mm 3 m/s 733 mmHg 98%
    10:00 +1°C° 0.2 mm 3 m/s 733 mmHg 98%
    11:00 +1°C° 0.2 mm 3 m/s 733 mmHg 98%
    12:00 +2°C° 0.1 mm 3 m/s 733 mmHg 98%
    13:00 +2°C° 0.1 mm 3 m/s 734 mmHg 98%
    14:00 +3°C° 0.1 mm 2 m/s 734 mmHg 98%
    15:00 +3°C° 0 mm 2 m/s 734 mmHg 98%
    16:00 +2°C° 0 mm 2 m/s 734 mmHg 98%
    17:00 +2°C° 0 mm 2 m/s 734 mmHg 97%
    18:00 +2°C° 0 mm 2 m/s 735 mmHg 97%
    19:00 +2°C° 0 mm 2 m/s 735 mmHg 97%
    20:00 +2°C° 0 mm 2 m/s 735 mmHg 97%
    21:00 +1°C° 0 mm 3 m/s 735 mmHg 97%
    22:00 +1°C° 0 mm 3 m/s 735 mmHg 96%
    23:00 +1°C° 0 mm 3 m/s 735 mmHg 96%

    3 Março, Terça-feira

    Tempo Temperatura Precipitação Vento Pressão Humidade
    00:00 +1°C° 0.1 mm 3 m/s 735 mmHg 96%
    01:00 +1°C° 0.1 mm 3 m/s 735 mmHg 97%
    02:00 0°C° 0.1 mm 4 m/s 734 mmHg 97%
    03:00 0°C° 0.3 mm 3 m/s 734 mmHg 97%
    04:00 0°C° 0.3 mm 3 m/s 734 mmHg 97%
    05:00 0°C° 0.3 mm 3 m/s 733 mmHg 97%
    06:00 0°C° 0.4 mm 3 m/s 733 mmHg 97%
    07:00 +1°C° 0.4 mm 2 m/s 733 mmHg 98%
    08:00 +1°C° 0.4 mm 2 m/s 733 mmHg 98%
    09:00 +1°C° 0.2 mm 2 m/s 733 mmHg 98%
    10:00 +2°C° 0.2 mm 2 m/s 733 mmHg 98%
    11:00 +2°C° 0.2 mm 2 m/s 733 mmHg 98%
    12:00 +2°C° 0.1 mm 2 m/s 733 mmHg 98%
    13:00 +2°C° 0.1 mm 2 m/s 734 mmHg 98%
    14:00 +3°C° 0.1 mm 2 m/s 734 mmHg 98%
    15:00 +3°C° 0.1 mm 2 m/s 735 mmHg 98%
    16:00 +3°C° 0.1 mm 2 m/s 735 mmHg 98%
    17:00 +4°C° 0.1 mm 1 m/s 736 mmHg 98%
    18:00 +4°C° 0 mm 1 m/s 736 mmHg 97%
    19:00 +3°C° 0 mm 1 m/s 737 mmHg 97%
    20:00 +3°C° 0 mm 1 m/s 737 mmHg 97%
    21:00 +3°C° 0 mm 1 m/s 738 mmHg 96%
    22:00 +3°C° 0 mm 1 m/s 738 mmHg 96%
    23:00 +3°C° 0 mm 1 m/s 738 mmHg 95%

    4 Março, Quarta-feira

    Tempo Temperatura Precipitação Vento Pressão Humidade
    00:00 +3°C° 0 mm 1 m/s 738 mmHg 95%
    01:00 +3°C° 0 mm 1 m/s 738 mmHg 94%
    02:00 +3°C° 0 mm 1 m/s 739 mmHg 94%
    03:00 +1°C° 0 mm 2 m/s 739 mmHg 93%
    04:00 +1°C° 0 mm 2 m/s 738 mmHg 93%
    05:00 +1°C° 0 mm 2 m/s 738 mmHg 93%
    06:00 0°C° 0 mm 3 m/s 738 mmHg 92%
    07:00 +1°C° 0 mm 3 m/s 738 mmHg 92%
    08:00 0°C° 0 mm 4 m/s 738 mmHg 91%
    09:00 +1°C° 0 mm 4 m/s 738 mmHg 90%
    10:00 +2°C° 0 mm 5 m/s 738 mmHg 90%
    11:00 +3°C° 0 mm 5 m/s 738 mmHg 89%
    12:00 +3°C° 0 mm 5 m/s 738 mmHg 90%
    13:00 +3°C° 0 mm 5 m/s 737 mmHg 91%
    14:00 +3°C° 0 mm 5 m/s 737 mmHg 92%
    15:00 +4°C° 0.4 mm 4 m/s 737 mmHg 93%
    16:00 +3°C° 0.4 mm 4 m/s 737 mmHg 94%
    17:00 +3°C° 0.4 mm 4 m/s 736 mmHg 95%
    18:00 +3°C° 0.2 mm 4 m/s 736 mmHg 96%
    19:00 +3°C° 0.2 mm 4 m/s 736 mmHg 96%
    20:00 +3°C° 0.2 mm 4 m/s 736 mmHg 96%
    21:00 +3°C° 0.4 mm 4 m/s 736 mmHg 96%
    22:00 +4°C° 0.4 mm 4 m/s 735 mmHg 96%
    23:00 +4°C° 0.4 mm 4 m/s 735 mmHg 96%

    5 Março, Quinta-feira

    Tempo Temperatura Precipitação Vento Pressão Humidade
    00:00 +4°C° 0 mm 4 m/s 735 mmHg 96%
    01:00 +4°C° 0 mm 4 m/s 734 mmHg 95%
    02:00 +4°C° 0 mm 4 m/s 734 mmHg 94%
    03:00 +4°C° 0 mm 4 m/s 734 mmHg 93%
    04:00 +3°C° 0 mm 5 m/s 733 mmHg 92%
    05:00 +2°C° 0 mm 5 m/s 733 mmHg 91%
    06:00 +3°C° 0 mm 5 m/s 733 mmHg 90%
    07:00 +3°C° 0 mm 5 m/s 732 mmHg 89%
    08:00 +3°C° 0 mm 5 m/s 732 mmHg 87%
    09:00 +5°C° 0 mm 5 m/s 732 mmHg 85%
    10:00 +6°C° 0 mm 5 m/s 732 mmHg 84%
    11:00 +6°C° 0 mm 5 m/s 732 mmHg 82%
    12:00 +7°C° 0 mm 5 m/s 731 mmHg 81%
    13:00 +7°C° 0 mm 5 m/s 731 mmHg 81%
    14:00 +7°C° 0 mm 5 m/s 730 mmHg 81%
    15:00 +7°C° 0.1 mm 5 m/s 730 mmHg 83%
    16:00 +6°C° 0.1 mm 5 m/s 729 mmHg 85%
    17:00 +6°C° 0.1 mm 5 m/s 729 mmHg 88%
    18:00 +5°C° 0.2 mm 6 m/s 729 mmHg 88%
    19:00 +5°C° 0.2 mm 6 m/s 728 mmHg 87%
    20:00 +5°C° 0.2 mm 6 m/s 728 mmHg 87%
    21:00 +5°C° 0.2 mm 5 m/s 728 mmHg 85%
    22:00 +5°C° 0.2 mm 5 m/s 728 mmHg 83%
    23:00 +3°C° 0.2 mm 5 m/s 728 mmHg 81%
    Mostrar mais